Location: Newark
(23.2528°N, 105.1886°E)
Time: 21:34:09
(UTC+00:00)

ISS - Visible Passes

Search period start: 16 October 2019 00:00
Search period end: 26 October 2019 00:00
Orbit: 411 x 421 km, 51.6° (Epoch: 16 October)

Date Brightness Start Highest point End Pass type
(mag) Time Alt. Az. Time Alt. Az. Time Alt. Az.
19 Oct -1.2 22:34:05 10° S 22:36:53 24° SE 22:39:40 10° ENE visible
20 Oct -0.5 21:47:10 10° SSE 21:48:27 12° SE 21:49:45 10° E visible
21 Oct -3.8 22:33:00 10° SW 22:36:20 70° NW 22:39:40 10° NE visible
22 Oct -2.8 21:45:08 14° SSW 21:47:49 48° SE 21:51:04 10° NE visible
23 Oct -1.1 21:00:06 20° ESE 21:00:06 20° ESE 21:02:00 10° ENE visible
23 Oct -2.1 22:33:34 10° W 22:35:59 18° NW 22:38:23 10° N visible
24 Oct -2.9 21:47:44 34° NNW 21:47:44 34° NNW 21:50:27 10° NNE visible
25 Oct -0.6 21:02:06 10° NE 21:02:06 10° NE 21:02:07 10° NE visible
